Weather History for Scappoose, OR

Change the Weather History Date:

Wednesday, September 25, 2013

  Actual Average Record
Temperature  
Mean Temperature 53 °F -  
Max Temperature 61 °F - 88 °F (2006)
Min Temperature 45 °F - 37 °F (2005)
Degree Days  
Heating Degree Days 12    
Month to date heating degree days 70  
Since 1 July heating degree days 94  
Cooling Degree Days 0    
Month to date cooling degree days 72  
Year to date cooling degree days 396  
Growing Degree Days 3 (Base 50)    
Moisture  
Dew Point 46 °F    
Average Humidity 75    
Maximum Humidity 93    
Minimum Humidity 57    
Precipitation  
Precipitation 0.00 in - 0.31 in (2001)
Month to date precipitation 3.38  
Year to date precipitation 17.92  
Sea Level Pressure  
Sea Level Pressure 29.94 in    
Wind  
Wind Speed 3 mph (NNW)    
Max Wind Speed 14 mph    
Max Gust Speed 16 mph    
Visibility 10 miles    
Events      
T = Trace of Precipitation, MM = Missing Value Source: NWS Daily Summary

Daily Weather History Graph

Daily Weather History Graph

Search for Another Location

Airport:

Trip Planner

Search our weather history database for the weather conditions in past years. The results will help you decide how hot, cold, wet, or windy it might be!

Date:

Astronomy

Sep. 25, 2013 Rise Set
Actual Time 7:02 AM PDT 7:02 PM PDT
Civil Twilight 6:32 AM PDT 7:32 PM PDT
Nautical Twilight 5:58 AM PDT 8:06 PM PDT
Astronomical Twilight 5:22 AM PDT 8:42 PM PDT
Moon 10:57 PM PDT (9/25) 1:28 PM PDT (9/25)
Length of Visible Light 12h 59m
Length of Day
11h 59m
Waning Gibbous, 63% of the Moon is Illuminated
Sep 25
Waning Gibbous
Sep 26
Last Quarter
Oct 4
New
Oct 11
First Quarter
Oct 18
Full

Hourly Weather History & Observations

Time (PDT) Temp. Dew Point Humidity Pressure Visibility Wind Dir Wind Speed Gust Speed Precip Events Conditions
12:53 AM 50.0 °F 48.0 °F 93% 29.86 in 10.0 mi Calm Calm - N/A   Overcast
1:53 AM 48.9 °F 46.9 °F 93% 29.86 in 10.0 mi Calm Calm - N/A   Mostly Cloudy
2:53 AM 48.9 °F 46.9 °F 93% 29.86 in 10.0 mi Calm Calm - N/A   Overcast
3:53 AM 48.9 °F 46.0 °F 90% 29.87 in 10.0 mi Calm Calm - N/A   Overcast
4:45 AM 48.2 °F 46.4 °F 93% 29.87 in 10.0 mi Calm Calm - N/A   Overcast
4:53 AM 50.0 °F 46.9 °F 89% 29.87 in 10.0 mi Calm Calm - N/A   Overcast
5:24 AM 48.2 °F 46.4 °F 93% 29.87 in 10.0 mi Calm Calm - N/A   Overcast
5:46 AM 48.2 °F 46.4 °F 93% 29.87 in 10.0 mi West 4.6 mph - N/A   Overcast
5:53 AM 50.0 °F 46.0 °F 86% 29.88 in 10.0 mi Calm Calm - N/A   Overcast
6:53 AM 48.9 °F 45.0 °F 86% 29.89 in 10.0 mi Calm Calm - N/A   Mostly Cloudy
7:53 AM 50.0 °F 45.0 °F 83% 29.91 in 10.0 mi NNW 3.5 mph - N/A   Overcast
8:53 AM 51.1 °F 46.0 °F 83% 29.92 in 10.0 mi Calm Calm - N/A   Mostly Cloudy
9:53 AM 53.1 °F 46.9 °F 80% 29.93 in 10.0 mi Calm Calm - N/A   Partly Cloudy
10:53 AM 57.0 °F 46.0 °F 67% 29.94 in 10.0 mi North 8.1 mph - N/A   Scattered Clouds
11:23 AM 55.4 °F 46.4 °F 72% 29.94 in 10.0 mi North 8.1 mph - N/A   Mostly Cloudy
11:32 AM 57.2 °F 46.4 °F 67% 29.94 in 10.0 mi NW 5.8 mph - N/A   Mostly Cloudy
11:53 AM 57.9 °F 45.0 °F 62% 29.94 in 10.0 mi NNW 8.1 mph - N/A   Mostly Cloudy
12:09 PM 57.2 °F 46.4 °F 67% 29.94 in 10.0 mi North 6.9 mph - N/A   Overcast
12:53 PM 59.0 °F 45.0 °F 60% 29.94 in 10.0 mi Variable 3.5 mph - N/A   Overcast
1:39 PM 57.2 °F 46.4 °F 67% 29.95 in 10.0 mi North 5.8 mph - N/A   Mostly Cloudy
1:49 PM 59.0 °F 44.6 °F 59% 29.95 in 10.0 mi North 9.2 mph - N/A   Overcast
1:53 PM 59.0 °F 45.0 °F 60% 29.95 in 10.0 mi NNW 8.1 mph - N/A   Overcast
2:53 PM 59.0 °F 46.0 °F 62% 29.96 in 10.0 mi North 5.8 mph - N/A   Overcast
3:53 PM 57.9 °F 46.9 °F 67% 29.97 in 10.0 mi NNW 8.1 mph - N/A   Overcast
4:53 PM 60.1 °F 46.0 °F 60% 29.98 in 10.0 mi North 6.9 mph - N/A   Overcast
5:53 PM 57.9 °F 46.9 °F 67% 29.99 in 10.0 mi NW 9.2 mph - N/A   Mostly Cloudy
6:53 PM 55.9 °F 46.9 °F 72% 29.99 in 10.0 mi NNW 5.8 mph - N/A   Scattered Clouds
7:53 PM 50.0 °F 46.0 °F 86% 30.00 in 10.0 mi West 4.6 mph - N/A   Clear
8:53 PM 52.0 °F 45.0 °F 77% 30.01 in 10.0 mi Calm Calm - N/A   Clear
9:53 PM 48.9 °F 45.0 °F 86% 30.02 in 10.0 mi Calm Calm - N/A   Clear
10:53 PM 46.0 °F 43.0 °F 89% 30.03 in 10.0 mi Calm Calm - N/A   Mostly Cloudy
11:53 PM 46.0 °F 44.1 °F 93% 30.03 in 10.0 mi Calm Calm - N/A   Clear